RRR4216 LPLA-TXKF

Flight info

Callsign RRR4216
Flight time 5h 17m
Altitude 32000
Route MIPRU DCT 38N030W 37N040W 36N050W 35N060W DCT BALOO MOMOM1
Aircraft A400/H-SDE2E3FGHIJ4J5M1RWXY/LB1D1

Departure

Time 2026-04-21 11:43
Airport Lajes Airport (LPLA)

Arrival

Time 2026-04-21 17:00
Airport L.F. Wade International Airport (TXKF)
Time Latitude Longitude Altitude Speed Heading
2026-04-21 11:35 38.76782 -27.09367 193 ft 0 kts 259°
2026-04-21 11:38 38.76781 -27.09374 188 ft 1 kts 259°
2026-04-21 11:38 38.76778 -27.09395 188 ft 5 kts 259°
2026-04-21 11:39 38.76752 -27.09422 193 ft 8 kts 161°
2026-04-21 11:39 38.76655 -27.09324 196 ft 26 kts 140°
2026-04-21 11:39 38.76509 -27.09171 196 ft 27 kts 141°
2026-04-21 11:39 38.76372 -27.09027 192 ft 24 kts 141°
2026-04-21 11:40 38.76249 -27.08901 203 ft 21 kts 141°
2026-04-21 11:40 38.76133 -27.08779 196 ft 23 kts 141°
2026-04-21 11:40 38.76004 -27.08645 196 ft 24 kts 141°
2026-04-21 11:40 38.75880 -27.08517 199 ft 22 kts 140°
2026-04-21 11:41 38.75771 -27.08402 196 ft 16 kts 144°
2026-04-21 11:41 38.75732 -27.08408 194 ft 2 kts 228°
2026-04-21 11:41 38.75721 -27.08424 190 ft 6 kts 228°
2026-04-21 11:41 38.75681 -27.08487 201 ft 11 kts 230°
2026-04-21 11:42 38.75682 -27.08550 200 ft 6 kts 313°
2026-04-21 11:42 38.75699 -27.08567 204 ft 19 kts 321°
2026-04-21 11:42 38.76036 -27.08919 196 ft 105 kts 321°
2026-04-21 11:42 38.76773 -27.09681 322 ft 156 kts 318°
2026-04-21 11:43 38.77676 -27.10639 737 ft 174 kts 317°
2026-04-21 11:43 38.78611 -27.11559 1771 ft 170 kts 316°
2026-04-21 11:43 38.79627 -27.12460 2448 ft 185 kts 317°
2026-04-21 11:43 38.80474 -27.13702 3050 ft 190 kts 290°
2026-04-21 11:44 38.80549 -27.15400 3643 ft 207 kts 259°
2026-04-21 11:44 38.79771 -27.17075 4260 ft 231 kts 239°
2026-04-21 11:44 38.78818 -27.18765 4775 ft 240 kts 244°
2026-04-21 11:44 38.77945 -27.20616 5623 ft 243 kts 247°
2026-04-21 11:45 38.77105 -27.22503 6629 ft 244 kts 247°
2026-04-21 11:45 38.76265 -27.24400 7577 ft 247 kts 248°
2026-04-21 11:45 38.75399 -27.26323 8475 ft 252 kts 248°
2026-04-21 11:45 38.74498 -27.28277 9325 ft 257 kts 248°
2026-04-21 11:46 38.73565 -27.30263 10104 ft 263 kts 246°
2026-04-21 11:46 38.72596 -27.32302 10668 ft 273 kts 247°
2026-04-21 11:46 38.71594 -27.34395 11404 ft 277 kts 247°
2026-04-21 11:46 38.70577 -27.36500 12246 ft 279 kts 248°
2026-04-21 11:47 38.69561 -27.38599 13077 ft 282 kts 248°
2026-04-21 11:47 38.68522 -27.40747 13880 ft 285 kts 248°
2026-04-21 11:47 38.67476 -27.42913 14609 ft 288 kts 248°
2026-04-21 11:47 38.66419 -27.45101 15344 ft 290 kts 248°
2026-04-21 11:48 38.65357 -27.47302 16089 ft 292 kts 248°
2026-04-21 11:48 38.64282 -27.49532 16782 ft 296 kts 248°
2026-04-21 11:48 38.63195 -27.51787 17509 ft 299 kts 248°
2026-04-21 11:48 38.62094 -27.54065 18237 ft 302 kts 248°
2026-04-21 11:49 38.60985 -27.56360 18919 ft 305 kts 248°
2026-04-21 11:49 38.59863 -27.58679 19604 ft 308 kts 248°
2026-04-21 11:49 38.58730 -27.61020 20299 ft 312 kts 248°
2026-04-21 11:49 38.57600 -27.63354 20976 ft 315 kts 248°
2026-04-21 11:50 38.56440 -27.65744 21624 ft 318 kts 248°
2026-04-21 11:50 38.55269 -27.68158 22230 ft 321 kts 248°
2026-04-21 11:50 38.54086 -27.70594 22854 ft 324 kts 247°
2026-04-21 11:50 38.52890 -27.73055 23439 ft 327 kts 247°
2026-04-21 11:51 38.51683 -27.75535 23923 ft 330 kts 247°
2026-04-21 11:51 38.50473 -27.78021 24350 ft 333 kts 247°
2026-04-21 11:51 38.49244 -27.80543 24781 ft 336 kts 247°
2026-04-21 11:51 38.48010 -27.83076 25214 ft 339 kts 247°
2026-04-21 11:52 38.46748 -27.85660 25648 ft 341 kts 247°
2026-04-21 11:52 38.45486 -27.88245 26055 ft 344 kts 247°
2026-04-21 11:52 38.44221 -27.90832 26441 ft 346 kts 247°
2026-04-21 11:52 38.42944 -27.93443 26838 ft 349 kts 247°
2026-04-21 11:53 38.41660 -27.96065 27222 ft 351 kts 247°
2026-04-21 11:53 38.40359 -27.98721 27581 ft 354 kts 246°
2026-04-21 11:53 38.39055 -28.01380 27930 ft 356 kts 246°
2026-04-21 11:53 38.37745 -28.04051 28272 ft 358 kts 246°
2026-04-21 11:54 38.36411 -28.06767 28591 ft 360 kts 246°
2026-04-21 11:54 38.35082 -28.09470 28846 ft 364 kts 246°
2026-04-21 11:54 38.33729 -28.12226 29092 ft 367 kts 247°
2026-04-21 11:54 38.32545 -28.15056 29364 ft 362 kts 253°
2026-04-21 11:55 38.31703 -28.18043 29661 ft 357 kts 261°
2026-04-21 11:55 38.31073 -28.21114 29988 ft 356 kts 263°
2026-04-21 11:55 38.30522 -28.24165 30296 ft 354 kts 264°
2026-04-21 11:55 38.30011 -28.27222 30630 ft 353 kts 264°
2026-04-21 11:56 38.29510 -28.30315 30964 ft 351 kts 264°
2026-04-21 11:56 38.29023 -28.33343 31290 ft 351 kts 264°
2026-04-21 11:56 38.28532 -28.36372 31628 ft 350 kts 264°
2026-04-21 11:56 38.28041 -28.39369 31833 ft 350 kts 264°
2026-04-21 11:57 38.27028 -28.45475 31863 ft 350 kts 264°
2026-04-21 11:57 38.26015 -28.51502 31866 ft 349 kts 264°
2026-04-21 11:58 38.24999 -28.57524 31858 ft 350 kts 264°
2026-04-21 11:58 38.23976 -28.63567 31864 ft 350 kts 264°
2026-04-21 11:59 38.22948 -28.69629 31871 ft 351 kts 263°
2026-04-21 11:59 38.21913 -28.75713 31873 ft 352 kts 263°
2026-04-21 12:00 38.20877 -28.81778 31884 ft 351 kts 263°
2026-04-21 12:00 38.19842 -28.87815 31887 ft 352 kts 263°
2026-04-21 12:01 38.18970 -28.92886 31890 ft 352 kts 263°
2026-04-21 12:01 38.17921 -28.98971 31887 ft 353 kts 263°
2026-04-21 12:02 38.16337 -29.08130 31894 ft 354 kts 263°
2026-04-21 12:03 38.15275 -29.14235 31903 ft 354 kts 263°
2026-04-21 12:03 38.14209 -29.20344 31902 ft 354 kts 263°
2026-04-21 12:04 38.13140 -29.26456 31893 ft 354 kts 263°
2026-04-21 12:04 38.12063 -29.32596 31937 ft 357 kts 263°
2026-04-21 12:05 38.10983 -29.38724 31912 ft 354 kts 263°
2026-04-21 12:05 38.09906 -29.44817 31914 ft 353 kts 263°
2026-04-21 12:06 38.08834 -29.50869 31919 ft 353 kts 263°
2026-04-21 12:06 38.07751 -29.56963 31917 ft 355 kts 263°
2026-04-21 12:07 38.06660 -29.63084 31923 ft 356 kts 262°
2026-04-21 12:07 38.05562 -29.69219 31925 ft 356 kts 262°
2026-04-21 12:08 38.04460 -29.75355 31925 ft 356 kts 262°
2026-04-21 12:08 38.03361 -29.81454 31925 ft 356 kts 262°
2026-04-21 12:09 38.02254 -29.87585 31931 ft 358 kts 262°
2026-04-21 12:09 38.01139 -29.93743 31930 ft 358 kts 262°
2026-04-21 12:10 38.00115 -29.99925 31936 ft 355 kts 267°
2026-04-21 12:10 37.99636 -30.06139 31944 ft 354 kts 269°
2026-04-21 12:11 37.99269 -30.12359 31921 ft 353 kts 270°
2026-04-21 12:11 37.98924 -30.18560 31954 ft 355 kts 270°
2026-04-21 12:12 37.98567 -30.24810 31944 ft 355 kts 270°
2026-04-21 12:12 37.98200 -30.31059 31947 ft 355 kts 270°
2026-04-21 12:13 37.97827 -30.37307 31949 ft 355 kts 270°
2026-04-21 12:13 37.97450 -30.43554 31953 ft 357 kts 269°
2026-04-21 12:14 37.97069 -30.49838 31955 ft 358 kts 269°
2026-04-21 12:14 37.96684 -30.56124 31960 ft 358 kts 269°
2026-04-21 12:15 37.96295 -30.62407 31989 ft 358 kts 269°
2026-04-21 12:15 37.95904 -30.68664 31935 ft 355 kts 269°
2026-04-21 12:16 37.95513 -30.74895 31969 ft 357 kts 269°
2026-04-21 12:16 37.95117 -30.81145 31965 ft 357 kts 269°
2026-04-21 12:17 37.94716 -30.87419 31973 ft 357 kts 269°
2026-04-21 12:17 37.94312 -30.93679 31972 ft 357 kts 269°
2026-04-21 12:18 37.93905 -30.99941 31968 ft 357 kts 269°
2026-04-21 12:18 37.93493 -31.06233 31974 ft 358 kts 269°
2026-04-21 12:19 37.93080 -31.12486 31982 ft 358 kts 269°
2026-04-21 12:19 37.92660 -31.18781 31971 ft 358 kts 269°
2026-04-21 12:20 37.92237 -31.25082 31976 ft 358 kts 269°
2026-04-21 12:20 37.91810 -31.31374 31984 ft 358 kts 269°
2026-04-21 12:21 37.91382 -31.37658 31978 ft 358 kts 269°
2026-04-21 12:21 37.90949 -31.43949 31984 ft 358 kts 269°
2026-04-21 12:22 37.90516 -31.50189 31986 ft 358 kts 269°
2026-04-21 12:22 37.90076 -31.56484 31990 ft 357 kts 269°
2026-04-21 12:23 37.89635 -31.62746 31989 ft 357 kts 269°
2026-04-21 12:23 37.89193 -31.68981 31995 ft 357 kts 269°
2026-04-21 12:24 37.88744 -31.75257 31996 ft 357 kts 269°
2026-04-21 12:24 37.88295 -31.81501 31983 ft 357 kts 269°
2026-04-21 12:25 37.87838 -31.87808 32003 ft 358 kts 268°
2026-04-21 12:25 37.87380 -31.94066 31997 ft 358 kts 268°
2026-04-21 12:26 37.86919 -32.00327 32014 ft 358 kts 268°
2026-04-21 12:26 37.86453 -32.06608 32001 ft 358 kts 268°
2026-04-21 12:27 37.85984 -32.12879 32003 ft 358 kts 268°
2026-04-21 12:27 37.85512 -32.19157 32009 ft 358 kts 268°
2026-04-21 12:28 37.85035 -32.25446 32011 ft 358 kts 268°
2026-04-21 12:28 37.84557 -32.31703 32016 ft 358 kts 268°
2026-04-21 12:29 37.84076 -32.37965 32014 ft 358 kts 268°
2026-04-21 12:29 37.83589 -32.44251 32015 ft 358 kts 268°
2026-04-21 12:30 37.83100 -32.50525 32014 ft 357 kts 268°
2026-04-21 12:30 37.82612 -32.56736 32020 ft 357 kts 268°
2026-04-21 12:31 37.82116 -32.63017 32001 ft 357 kts 268°
2026-04-21 12:31 37.81621 -32.69237 32021 ft 358 kts 268°
2026-04-21 12:32 37.81117 -32.75525 32026 ft 358 kts 268°
2026-04-21 12:32 37.80615 -32.81753 32026 ft 358 kts 268°
2026-04-21 12:33 37.80105 -32.88033 32032 ft 358 kts 268°
2026-04-21 12:33 37.79596 -32.94259 32030 ft 358 kts 267°
2026-04-21 12:34 37.79079 -33.00538 32036 ft 358 kts 267°
2026-04-21 12:34 37.78561 -33.06791 32044 ft 358 kts 267°
2026-04-21 12:35 37.78041 -33.13038 32038 ft 358 kts 267°
2026-04-21 12:35 37.77516 -33.19296 32046 ft 358 kts 267°
2026-04-21 12:36 37.76989 -33.25538 32041 ft 358 kts 267°
2026-04-21 12:36 37.76456 -33.31802 32039 ft 358 kts 267°
2026-04-21 12:37 37.75920 -33.38067 32057 ft 358 kts 267°
2026-04-21 12:37 37.75384 -33.44301 32037 ft 358 kts 266°
2026-04-21 12:38 37.74841 -33.50579 32053 ft 359 kts 266°
2026-04-21 12:38 37.74296 -33.56830 32053 ft 359 kts 266°
2026-04-21 12:39 37.73743 -33.63133 32057 ft 360 kts 266°
2026-04-21 12:39 37.73189 -33.69408 32059 ft 360 kts 266°
2026-04-21 12:40 37.72632 -33.75686 32060 ft 360 kts 266°
2026-04-21 12:40 37.72071 -33.81964 32062 ft 360 kts 266°
2026-04-21 12:41 37.71508 -33.88231 32061 ft 361 kts 266°
2026-04-21 12:41 37.70936 -33.94561 32063 ft 360 kts 266°
2026-04-21 12:42 37.70364 -34.00842 32069 ft 360 kts 266°
2026-04-21 12:42 37.69792 -34.07099 32072 ft 361 kts 266°
2026-04-21 12:43 37.69212 -34.13393 32076 ft 361 kts 266°
2026-04-21 12:43 37.68632 -34.19665 32072 ft 360 kts 266°
2026-04-21 12:44 37.68044 -34.25981 32074 ft 361 kts 266°
2026-04-21 12:44 37.67457 -34.32247 32085 ft 361 kts 266°
2026-04-21 12:45 37.66861 -34.38569 32081 ft 361 kts 266°
2026-04-21 12:45 37.66268 -34.44819 32089 ft 361 kts 266°
2026-04-21 12:46 37.65669 -34.51106 32079 ft 362 kts 266°
2026-04-21 12:46 37.65061 -34.57449 32087 ft 362 kts 265°
2026-04-21 12:47 37.64454 -34.63749 32097 ft 362 kts 265°
2026-04-21 12:47 37.63842 -34.70055 32097 ft 362 kts 265°
2026-04-21 12:48 37.63227 -34.76368 32092 ft 363 kts 265°
2026-04-21 12:48 37.62607 -34.82690 32091 ft 364 kts 265°
2026-04-21 12:49 37.61984 -34.89002 32097 ft 364 kts 265°
2026-04-21 12:49 37.61355 -34.95350 32121 ft 364 kts 265°
2026-04-21 12:50 37.60724 -35.01673 32102 ft 363 kts 265°
2026-04-21 12:50 37.60199 -35.06910 32107 ft 364 kts 265°
2026-04-21 12:51 37.59455 -35.14302 32104 ft 364 kts 265°
2026-04-21 12:51 37.58922 -35.19558 32108 ft 364 kts 265°
2026-04-21 12:52 37.58277 -35.25897 32104 ft 364 kts 265°
2026-04-21 12:52 37.57632 -35.32192 32113 ft 364 kts 265°
2026-04-21 12:53 37.56979 -35.38543 32116 ft 364 kts 265°
2026-04-21 12:53 37.56321 -35.44893 32113 ft 364 kts 265°
2026-04-21 12:54 37.55665 -35.51204 32103 ft 364 kts 264°
2026-04-21 12:54 37.55003 -35.57533 32121 ft 365 kts 264°
2026-04-21 12:55 37.54333 -35.63907 32119 ft 365 kts 264°
2026-04-21 12:55 37.53668 -35.70198 32124 ft 365 kts 264°
2026-04-21 12:56 37.52994 -35.76543 32136 ft 365 kts 264°
2026-04-21 12:56 37.52317 -35.82874 32130 ft 364 kts 264°
2026-04-21 12:57 37.51637 -35.89210 32132 ft 364 kts 264°
2026-04-21 12:57 37.50957 -35.95513 32132 ft 364 kts 264°
2026-04-21 12:58 37.50272 -36.01830 32120 ft 364 kts 264°
2026-04-21 12:58 37.49586 -36.08128 32133 ft 364 kts 264°
2026-04-21 12:59 37.48892 -36.14460 32135 ft 364 kts 264°
2026-04-21 12:59 37.48198 -36.20763 32137 ft 364 kts 264°
2026-04-21 13:00 37.47498 -36.27088 32131 ft 364 kts 264°
2026-04-21 13:00 37.46795 -36.33415 32143 ft 364 kts 264°
2026-04-21 13:01 37.46091 -36.39710 32143 ft 365 kts 264°
2026-04-21 13:01 37.45381 -36.46028 32143 ft 365 kts 264°
2026-04-21 13:02 37.44670 -36.52329 32144 ft 365 kts 264°
2026-04-21 13:02 37.43594 -36.61803 32146 ft 363 kts 263°
2026-04-21 13:03 37.42875 -36.68092 32150 ft 363 kts 263°
2026-04-21 13:03 37.42158 -36.74339 32147 ft 363 kts 263°
2026-04-21 13:04 37.41434 -36.80617 32151 ft 363 kts 263°
2026-04-21 13:04 37.40705 -36.86905 32151 ft 363 kts 263°
2026-04-21 13:05 37.39976 -36.93164 32151 ft 363 kts 263°
2026-04-21 13:05 37.39242 -36.99438 32145 ft 363 kts 263°
2026-04-21 13:06 37.38502 -37.05730 32160 ft 363 kts 263°
2026-04-21 13:06 37.37764 -37.11979 32159 ft 363 kts 263°
2026-04-21 13:07 37.37022 -37.18238 32162 ft 363 kts 263°
2026-04-21 13:07 37.36272 -37.24522 32154 ft 363 kts 263°
2026-04-21 13:08 37.35525 -37.30766 32165 ft 363 kts 263°
2026-04-21 13:08 37.34766 -37.37072 32170 ft 362 kts 263°
2026-04-21 13:09 37.34015 -37.43285 32173 ft 361 kts 263°
2026-04-21 13:09 37.33255 -37.49539 32167 ft 361 kts 263°
2026-04-21 13:10 37.32495 -37.55772 32176 ft 362 kts 262°
2026-04-21 13:10 37.31729 -37.62031 32176 ft 362 kts 262°
2026-04-21 13:11 37.30960 -37.68280 32176 ft 362 kts 262°
2026-04-21 13:11 37.30184 -37.74553 32176 ft 362 kts 262°
2026-04-21 13:12 37.29408 -37.80805 32175 ft 363 kts 262°
2026-04-21 13:12 37.28633 -37.87020 32184 ft 363 kts 262°
2026-04-21 13:13 37.27849 -37.93274 32186 ft 363 kts 262°
2026-04-21 13:13 37.27062 -37.99526 32184 ft 363 kts 262°
2026-04-21 13:14 37.26270 -38.05795 32189 ft 363 kts 262°
2026-04-21 13:14 37.25478 -38.12035 32198 ft 363 kts 262°
2026-04-21 13:15 37.24681 -38.18289 32189 ft 362 kts 262°
2026-04-21 13:15 37.23880 -38.24545 32194 ft 363 kts 262°
2026-04-21 13:16 37.23074 -38.30810 32194 ft 363 kts 262°
2026-04-21 13:16 37.22269 -38.37043 32195 ft 363 kts 262°
2026-04-21 13:17 37.21459 -38.43287 32189 ft 363 kts 262°
2026-04-21 13:17 37.20646 -38.49534 32198 ft 363 kts 262°
2026-04-21 13:18 37.19829 -38.55774 32199 ft 363 kts 262°
2026-04-21 13:18 37.19010 -38.62012 32199 ft 363 kts 262°
2026-04-21 13:19 37.18184 -38.68273 32212 ft 364 kts 262°
2026-04-21 13:19 37.17359 -38.74507 32195 ft 364 kts 262°
2026-04-21 13:20 37.16521 -38.80803 32197 ft 364 kts 262°
2026-04-21 13:20 37.15689 -38.87029 32206 ft 364 kts 262°
2026-04-21 13:21 37.14849 -38.93290 32203 ft 364 kts 262°
2026-04-21 13:21 37.14011 -38.99512 32205 ft 364 kts 262°
2026-04-21 13:22 37.13165 -39.05774 32208 ft 364 kts 262°
2026-04-21 13:22 37.12317 -39.12017 32207 ft 364 kts 261°
2026-04-21 13:23 37.11468 -39.18247 32206 ft 364 kts 261°
2026-04-21 13:23 37.10607 -39.24533 32217 ft 364 kts 261°
2026-04-21 13:24 37.09750 -39.30771 32214 ft 364 kts 261°
2026-04-21 13:24 37.08888 -39.37016 32215 ft 364 kts 261°
2026-04-21 13:25 37.08023 -39.43258 32225 ft 365 kts 261°
2026-04-21 13:25 37.07150 -39.49529 32217 ft 365 kts 261°
2026-04-21 13:26 37.06277 -39.55781 32217 ft 365 kts 261°
2026-04-21 13:26 37.05398 -39.62048 32233 ft 366 kts 261°
2026-04-21 13:27 37.04516 -39.68313 32225 ft 366 kts 261°
2026-04-21 13:27 37.03628 -39.74593 32226 ft 366 kts 261°
2026-04-21 13:28 37.02738 -39.80863 32213 ft 366 kts 261°
2026-04-21 13:28 37.01847 -39.87123 32228 ft 367 kts 261°
2026-04-21 13:29 37.00945 -39.93427 32221 ft 367 kts 261°
2026-04-21 13:29 37.00099 -39.99705 32228 ft 366 kts 265°
2026-04-21 13:30 36.99644 -40.06042 32219 ft 366 kts 266°
2026-04-21 13:30 36.99268 -40.12410 32235 ft 367 kts 266°
2026-04-21 13:31 36.98907 -40.18758 32237 ft 367 kts 266°
2026-04-21 13:31 36.98539 -40.25107 32235 ft 367 kts 266°
2026-04-21 13:32 36.98160 -40.31496 32235 ft 368 kts 266°
2026-04-21 13:32 36.97776 -40.37881 32224 ft 368 kts 266°
2026-04-21 13:33 36.97388 -40.44270 32232 ft 368 kts 266°
2026-04-21 13:33 36.96998 -40.50647 32224 ft 369 kts 266°
2026-04-21 13:34 36.96604 -40.57028 32238 ft 369 kts 266°
2026-04-21 13:34 36.96206 -40.63419 32235 ft 369 kts 266°
2026-04-21 13:35 36.95804 -40.69814 32220 ft 369 kts 266°
2026-04-21 13:35 36.95396 -40.76262 32232 ft 370 kts 266°
2026-04-21 13:36 36.94986 -40.82670 32239 ft 370 kts 266°
2026-04-21 13:36 36.94575 -40.89051 32233 ft 370 kts 266°
2026-04-21 13:37 36.94159 -40.95454 32232 ft 370 kts 266°
2026-04-21 13:37 36.93738 -41.01871 32244 ft 370 kts 266°
2026-04-21 13:38 36.93316 -41.08260 32237 ft 370 kts 266°
2026-04-21 13:38 36.92889 -41.14661 32237 ft 370 kts 266°
2026-04-21 13:39 36.92457 -41.21094 32238 ft 370 kts 266°
2026-04-21 13:39 36.92023 -41.27513 32245 ft 370 kts 266°
2026-04-21 13:40 36.91588 -41.33887 32232 ft 370 kts 266°
2026-04-21 13:40 36.91146 -41.40308 32242 ft 370 kts 266°
2026-04-21 13:41 36.90700 -41.46734 32241 ft 371 kts 266°
2026-04-21 13:41 36.90252 -41.53143 32236 ft 370 kts 266°
2026-04-21 13:42 36.89878 -41.58463 32248 ft 371 kts 266°
2026-04-21 13:42 36.89424 -41.64863 32239 ft 371 kts 266°
2026-04-21 13:43 36.88966 -41.71270 32242 ft 371 kts 266°
2026-04-21 13:43 36.88503 -41.77703 32244 ft 371 kts 266°
2026-04-21 13:44 36.88036 -41.84141 32243 ft 371 kts 266°
2026-04-21 13:44 36.87568 -41.90542 32240 ft 371 kts 266°
2026-04-21 13:45 36.87094 -41.96982 32240 ft 371 kts 266°
2026-04-21 13:45 36.86619 -42.03388 32241 ft 371 kts 266°
2026-04-21 13:46 36.86139 -42.09807 32243 ft 372 kts 266°
2026-04-21 13:46 36.85655 -42.16249 32246 ft 372 kts 266°
2026-04-21 13:47 36.85168 -42.22670 32250 ft 372 kts 266°
2026-04-21 13:47 36.84677 -42.29093 32248 ft 372 kts 266°
2026-04-21 13:48 36.84183 -42.35516 32247 ft 373 kts 266°
2026-04-21 13:48 36.83682 -42.41984 32241 ft 374 kts 266°
2026-04-21 13:49 36.83177 -42.48464 32246 ft 375 kts 266°
2026-04-21 13:49 36.82669 -42.54925 32246 ft 376 kts 266°
2026-04-21 13:50 36.82155 -42.61425 32249 ft 375 kts 266°
2026-04-21 13:50 36.81640 -42.67880 32249 ft 375 kts 266°
2026-04-21 13:51 36.81117 -42.74407 32242 ft 376 kts 266°
2026-04-21 13:51 36.80592 -42.80900 32247 ft 377 kts 266°
2026-04-21 13:52 36.80064 -42.87400 32247 ft 379 kts 267°
2026-04-21 13:52 36.79528 -42.93957 32245 ft 382 kts 267°
2026-04-21 13:53 36.78983 -43.00563 32249 ft 382 kts 267°
2026-04-21 13:53 36.78434 -43.07168 32235 ft 382 kts 267°
2026-04-21 13:54 36.77880 -43.13794 32251 ft 384 kts 267°
2026-04-21 13:54 36.77323 -43.20415 32244 ft 384 kts 267°
2026-04-21 13:55 36.76764 -43.27009 32249 ft 385 kts 267°
2026-04-21 13:55 36.76199 -43.33629 32249 ft 385 kts 267°
2026-04-21 13:56 36.75628 -43.40290 32248 ft 388 kts 268°
2026-04-21 13:56 36.75046 -43.47050 32253 ft 393 kts 268°
2026-04-21 13:57 36.74457 -43.53806 32250 ft 394 kts 268°
2026-04-21 13:57 36.73861 -43.60598 32245 ft 394 kts 268°
2026-04-21 13:58 36.73263 -43.67375 32255 ft 394 kts 268°
2026-04-21 13:58 36.72659 -43.74180 32239 ft 394 kts 268°
2026-04-21 13:59 36.72053 -43.80960 32251 ft 396 kts 268°
2026-04-21 13:59 36.71439 -43.87790 32240 ft 396 kts 268°
2026-04-21 14:00 36.70821 -43.94645 32252 ft 400 kts 268°
2026-04-21 14:00 36.70195 -44.01516 32252 ft 401 kts 268°
2026-04-21 14:01 36.69558 -44.08448 32239 ft 401 kts 268°
2026-04-21 14:01 36.68922 -44.15334 32246 ft 402 kts 268°
2026-04-21 14:02 36.68277 -44.22276 32246 ft 403 kts 268°
2026-04-21 14:03 36.67303 -44.32678 32243 ft 403 kts 268°
2026-04-21 14:03 36.66649 -44.39606 32237 ft 403 kts 268°
2026-04-21 14:04 36.65992 -44.46540 32244 ft 406 kts 268°
2026-04-21 14:04 36.65326 -44.53515 32247 ft 407 kts 268°
2026-04-21 14:05 36.64653 -44.60502 32247 ft 407 kts 268°
2026-04-21 14:05 36.63978 -44.67475 32244 ft 406 kts 268°
2026-04-21 14:06 36.63297 -44.74463 32232 ft 407 kts 268°
2026-04-21 14:06 36.62611 -44.81472 32243 ft 407 kts 268°
2026-04-21 14:07 36.61922 -44.88468 32245 ft 408 kts 268°
2026-04-21 14:07 36.61226 -44.95490 32244 ft 409 kts 268°
2026-04-21 14:08 36.60523 -45.02535 32239 ft 410 kts 268°
2026-04-21 14:08 36.59814 -45.09589 32237 ft 410 kts 268°
2026-04-21 14:09 36.59104 -45.16627 32240 ft 411 kts 268°
2026-04-21 14:09 36.58386 -45.23690 32241 ft 411 kts 268°
2026-04-21 14:10 36.57665 -45.30737 32241 ft 411 kts 268°
2026-04-21 14:10 36.56940 -45.37792 32241 ft 411 kts 268°
2026-04-21 14:11 36.56211 -45.44840 32235 ft 411 kts 267°
2026-04-21 14:11 36.55475 -45.51917 32235 ft 411 kts 267°
2026-04-21 14:12 36.54741 -45.58928 32235 ft 411 kts 267°
2026-04-21 14:12 36.53999 -45.65983 32235 ft 411 kts 267°
2026-04-21 14:13 36.53249 -45.73067 32234 ft 411 kts 267°
2026-04-21 14:13 36.52501 -45.80093 32236 ft 411 kts 267°
2026-04-21 14:14 36.51750 -45.87105 32234 ft 411 kts 267°
2026-04-21 14:14 36.50995 -45.94120 32232 ft 410 kts 267°
2026-04-21 14:15 36.50235 -46.01140 32231 ft 410 kts 267°
2026-04-21 14:15 36.49466 -46.08195 32224 ft 410 kts 266°
2026-04-21 14:16 36.48698 -46.15209 32228 ft 410 kts 266°
2026-04-21 14:16 36.47925 -46.22227 32228 ft 410 kts 266°
2026-04-21 14:17 36.47150 -46.29232 32228 ft 410 kts 266°
2026-04-21 14:17 36.46369 -46.36245 32226 ft 409 kts 266°
2026-04-21 14:18 36.45590 -46.43203 32219 ft 408 kts 266°
2026-04-21 14:18 36.44804 -46.50183 32225 ft 407 kts 266°
2026-04-21 14:19 36.44015 -46.57160 32228 ft 407 kts 265°
2026-04-21 14:19 36.43223 -46.64126 32220 ft 407 kts 265°
2026-04-21 14:20 36.42431 -46.71053 32220 ft 407 kts 265°
2026-04-21 14:20 36.41634 -46.77994 32212 ft 407 kts 265°
2026-04-21 14:21 36.40828 -46.84968 32219 ft 407 kts 265°
2026-04-21 14:21 36.40020 -46.91925 32212 ft 407 kts 265°
2026-04-21 14:22 36.39211 -46.98844 32212 ft 405 kts 265°
2026-04-21 14:22 36.38400 -47.05760 32209 ft 405 kts 265°
2026-04-21 14:23 36.37586 -47.12665 32208 ft 405 kts 265°
2026-04-21 14:23 36.36770 -47.19548 32219 ft 405 kts 265°
2026-04-21 14:24 36.35944 -47.26479 32217 ft 405 kts 265°
2026-04-21 14:24 36.35120 -47.33358 32209 ft 405 kts 265°
2026-04-21 14:25 36.34289 -47.40258 32204 ft 405 kts 264°
2026-04-21 14:25 36.33452 -47.47178 32207 ft 405 kts 264°
2026-04-21 14:26 36.32616 -47.54057 32215 ft 405 kts 264°
2026-04-21 14:26 36.31770 -47.60985 32209 ft 405 kts 264°
2026-04-21 14:27 36.30929 -47.67830 32207 ft 403 kts 264°
2026-04-21 14:27 36.30080 -47.74710 32203 ft 403 kts 264°
2026-04-21 14:28 36.29228 -47.81589 32197 ft 403 kts 263°
2026-04-21 14:28 36.28379 -47.88402 32199 ft 402 kts 263°
2026-04-21 14:29 36.27524 -47.95238 32198 ft 401 kts 263°
2026-04-21 14:29 36.26664 -48.02074 32193 ft 401 kts 263°
2026-04-21 14:30 36.25801 -48.08906 32197 ft 401 kts 263°
2026-04-21 14:30 36.24934 -48.15740 32195 ft 401 kts 263°
2026-04-21 14:31 36.24062 -48.22571 32189 ft 401 kts 262°
2026-04-21 14:31 36.23189 -48.29385 32192 ft 400 kts 263°
2026-04-21 14:32 36.22462 -48.35034 32188 ft 399 kts 262°
2026-04-21 14:32 36.21585 -48.41825 32189 ft 400 kts 263°
2026-04-21 14:33 36.20557 -48.49740 32186 ft 399 kts 262°
2026-04-21 14:33 36.19815 -48.55422 32187 ft 399 kts 262°
2026-04-21 14:34 36.18928 -48.62192 32184 ft 398 kts 262°
2026-04-21 14:34 36.18043 -48.68920 32181 ft 398 kts 262°
2026-04-21 14:35 36.17151 -48.75672 32179 ft 397 kts 262°
2026-04-21 14:35 36.16254 -48.82423 32179 ft 398 kts 262°
2026-04-21 14:36 36.15353 -48.89180 32174 ft 397 kts 262°
2026-04-21 14:36 36.14449 -48.95932 32175 ft 397 kts 262°
2026-04-21 14:37 36.13547 -49.02636 32173 ft 397 kts 261°
2026-04-21 14:37 36.12634 -49.09391 32170 ft 398 kts 261°
2026-04-21 14:38 36.11719 -49.16132 32175 ft 398 kts 261°
2026-04-21 14:38 36.10798 -49.22884 32169 ft 397 kts 261°
2026-04-21 14:39 36.09876 -49.29616 32171 ft 398 kts 262°
2026-04-21 14:39 36.08949 -49.36359 32170 ft 397 kts 261°
2026-04-21 14:40 36.08021 -49.43079 32172 ft 398 kts 261°
2026-04-21 14:40 36.07093 -49.49772 32167 ft 397 kts 261°
2026-04-21 14:41 36.06155 -49.56506 32165 ft 397 kts 261°
2026-04-21 14:41 36.05214 -49.63232 32160 ft 396 kts 261°
2026-04-21 14:42 36.04270 -49.69950 32162 ft 397 kts 261°
2026-04-21 14:42 36.03323 -49.76663 32159 ft 396 kts 261°
2026-04-21 14:43 36.02377 -49.83346 32156 ft 396 kts 261°
2026-04-21 14:43 36.01424 -49.90043 32159 ft 396 kts 261°
2026-04-21 14:44 36.00466 -49.96751 32159 ft 396 kts 261°
2026-04-21 14:44 35.99814 -50.03474 32156 ft 393 kts 266°
2026-04-21 14:45 35.99387 -50.10214 32154 ft 393 kts 266°
2026-04-21 14:45 35.99001 -50.16931 32154 ft 393 kts 267°
2026-04-21 14:46 35.98610 -50.23682 32151 ft 393 kts 266°
2026-04-21 14:46 35.98212 -50.30390 32151 ft 392 kts 266°
2026-04-21 14:47 35.97808 -50.37068 32156 ft 392 kts 266°
2026-04-21 14:47 35.97399 -50.43759 32150 ft 392 kts 266°
2026-04-21 14:48 35.96985 -50.50468 32144 ft 390 kts 266°
2026-04-21 14:48 35.96569 -50.57168 32145 ft 390 kts 266°
2026-04-21 14:49 35.96150 -50.63841 32141 ft 390 kts 266°
2026-04-21 14:49 35.95729 -50.70489 32142 ft 389 kts 266°
2026-04-21 14:50 35.95376 -50.76024 32143 ft 389 kts 266°
2026-04-21 14:50 35.94876 -50.83800 32139 ft 389 kts 266°
2026-04-21 14:51 35.94445 -50.90426 32133 ft 388 kts 265°
2026-04-21 14:51 35.94011 -50.97059 32132 ft 387 kts 265°
2026-04-21 14:52 35.93571 -51.03705 32131 ft 387 kts 265°
2026-04-21 14:52 35.93132 -51.10297 32128 ft 387 kts 265°
2026-04-21 14:53 35.92688 -51.16912 32129 ft 387 kts 265°
2026-04-21 14:53 35.92238 -51.23552 32129 ft 387 kts 265°
2026-04-21 14:54 35.91789 -51.30125 32129 ft 387 kts 265°
2026-04-21 14:54 35.91332 -51.36763 32125 ft 387 kts 265°
2026-04-21 14:55 35.90872 -51.43379 32122 ft 386 kts 265°
2026-04-21 14:55 35.90412 -51.49955 32124 ft 386 kts 265°
2026-04-21 14:56 35.89946 -51.56567 32118 ft 386 kts 265°
2026-04-21 14:56 35.89480 -51.63126 32115 ft 385 kts 265°
2026-04-21 14:57 35.89008 -51.69708 32118 ft 384 kts 265°
2026-04-21 14:57 35.88536 -51.76248 32122 ft 384 kts 265°
2026-04-21 14:58 35.88059 -51.82800 32115 ft 384 kts 264°
2026-04-21 14:58 35.87578 -51.89363 32113 ft 383 kts 264°
2026-04-21 14:59 35.87097 -51.95887 32112 ft 383 kts 264°
2026-04-21 14:59 35.86609 -52.02443 32110 ft 383 kts 264°
2026-04-21 15:00 35.86119 -52.08974 32111 ft 382 kts 264°
2026-04-21 15:00 35.85630 -52.15458 32112 ft 381 kts 264°
2026-04-21 15:01 35.85135 -52.21963 32103 ft 381 kts 264°
2026-04-21 15:01 35.84638 -52.28456 32100 ft 381 kts 264°
2026-04-21 15:02 35.84133 -52.34995 32099 ft 381 kts 264°
2026-04-21 15:02 35.83630 -52.41476 32099 ft 381 kts 264°
2026-04-21 15:03 35.83121 -52.47979 32093 ft 381 kts 263°
2026-04-21 15:03 35.82611 -52.54451 32095 ft 380 kts 263°
2026-04-21 15:04 35.82096 -52.60949 32094 ft 379 kts 263°
2026-04-21 15:04 35.81582 -52.67380 32088 ft 379 kts 263°
2026-04-21 15:05 35.81062 -52.73844 32087 ft 379 kts 263°
2026-04-21 15:05 35.80280 -52.83490 32083 ft 376 kts 263°
2026-04-21 15:06 35.79756 -52.89892 32083 ft 375 kts 263°
2026-04-21 15:06 35.79229 -52.96289 32077 ft 375 kts 263°
2026-04-21 15:07 35.78701 -53.02670 32085 ft 375 kts 262°
2026-04-21 15:07 35.78168 -53.09052 32075 ft 374 kts 262°
2026-04-21 15:08 35.77636 -53.15398 32078 ft 374 kts 262°
2026-04-21 15:08 35.77096 -53.21787 32074 ft 374 kts 262°
2026-04-21 15:09 35.76555 -53.28147 32074 ft 374 kts 262°
2026-04-21 15:09 35.76013 -53.34490 32072 ft 373 kts 262°
2026-04-21 15:10 35.75467 -53.40823 32070 ft 373 kts 262°
2026-04-21 15:10 35.74913 -53.47222 32067 ft 373 kts 262°
2026-04-21 15:11 35.74361 -53.53552 32067 ft 373 kts 262°
2026-04-21 15:11 35.73805 -53.59896 32064 ft 373 kts 262°
2026-04-21 15:12 35.73245 -53.66232 32055 ft 373 kts 262°
2026-04-21 15:12 35.72680 -53.72599 32064 ft 373 kts 262°
2026-04-21 15:13 35.72116 -53.78922 32059 ft 372 kts 262°
2026-04-21 15:13 35.71551 -53.85207 32059 ft 372 kts 262°
2026-04-21 15:14 35.70977 -53.91553 32058 ft 371 kts 262°
2026-04-21 15:14 35.70405 -53.97848 32056 ft 371 kts 262°
2026-04-21 15:15 35.69829 -54.04142 32059 ft 370 kts 262°
2026-04-21 15:15 35.69251 -54.10435 32056 ft 369 kts 262°
2026-04-21 15:16 35.68673 -54.16674 32050 ft 369 kts 262°
2026-04-21 15:16 35.68089 -54.22951 32053 ft 369 kts 262°
2026-04-21 15:17 35.67504 -54.29199 32049 ft 368 kts 261°
2026-04-21 15:17 35.66914 -54.35476 32043 ft 368 kts 261°
2026-04-21 15:18 35.66322 -54.41728 32042 ft 368 kts 261°
2026-04-21 15:18 35.65731 -54.47929 32042 ft 368 kts 261°
2026-04-21 15:19 35.65133 -54.54187 32042 ft 368 kts 261°
2026-04-21 15:19 35.64530 -54.60447 32033 ft 368 kts 261°
2026-04-21 15:20 35.63925 -54.66694 32031 ft 369 kts 261°
2026-04-21 15:20 35.63318 -54.72940 32031 ft 369 kts 261°
2026-04-21 15:21 35.62707 -54.79184 32021 ft 369 kts 261°
2026-04-21 15:21 35.62194 -54.84400 32031 ft 368 kts 261°
2026-04-21 15:22 35.61474 -54.91686 32028 ft 369 kts 261°
2026-04-21 15:22 35.60955 -54.96908 32027 ft 369 kts 261°
2026-04-21 15:23 35.60330 -55.03164 32023 ft 369 kts 260°
2026-04-21 15:23 35.59703 -55.09409 32018 ft 368 kts 260°
2026-04-21 15:24 35.59073 -55.15650 32012 ft 368 kts 260°
2026-04-21 15:24 35.58441 -55.21880 32021 ft 368 kts 260°
2026-04-21 15:25 35.57800 -55.28164 32025 ft 369 kts 259°
2026-04-21 15:25 35.57161 -55.34394 32006 ft 368 kts 259°
2026-04-21 15:26 35.56519 -55.40621 32005 ft 368 kts 259°
2026-04-21 15:26 35.55872 -55.46873 32005 ft 368 kts 259°
2026-04-21 15:27 35.55228 -55.53052 32014 ft 368 kts 259°
2026-04-21 15:27 35.54576 -55.59289 31998 ft 368 kts 259°
2026-04-21 15:28 35.53922 -55.65507 31997 ft 368 kts 259°
2026-04-21 15:28 35.53259 -55.71774 31993 ft 368 kts 259°
2026-04-21 15:29 35.52601 -55.77969 31994 ft 368 kts 259°
2026-04-21 15:29 35.51936 -55.84191 31991 ft 367 kts 258°
2026-04-21 15:30 35.51266 -55.90441 31988 ft 367 kts 258°
2026-04-21 15:30 35.50600 -55.96616 31987 ft 367 kts 258°
2026-04-21 15:31 35.49925 -56.02839 31985 ft 367 kts 258°
2026-04-21 15:31 35.49247 -56.09062 31986 ft 367 kts 258°
2026-04-21 15:32 35.48568 -56.15270 31981 ft 367 kts 258°
2026-04-21 15:32 35.47885 -56.21483 31979 ft 367 kts 258°
2026-04-21 15:33 35.47203 -56.27651 31982 ft 367 kts 258°
2026-04-21 15:33 35.46513 -56.33868 31978 ft 367 kts 258°
2026-04-21 15:34 35.45821 -56.40071 31977 ft 367 kts 258°
2026-04-21 15:34 35.45126 -56.46277 31974 ft 367 kts 258°
2026-04-21 15:35 35.44433 -56.52425 31969 ft 367 kts 258°
2026-04-21 15:35 35.43731 -56.58630 31984 ft 367 kts 257°
2026-04-21 15:36 35.43028 -56.64820 31969 ft 365 kts 257°
2026-04-21 15:36 35.42321 -56.71010 31968 ft 365 kts 257°
2026-04-21 15:37 35.41614 -56.77169 31966 ft 365 kts 257°
2026-04-21 15:37 35.40905 -56.83319 31966 ft 365 kts 257°
2026-04-21 15:38 35.40188 -56.89504 31959 ft 366 kts 257°
2026-04-21 15:38 35.39469 -56.95688 31954 ft 366 kts 257°
2026-04-21 15:39 35.38749 -57.01851 31956 ft 366 kts 257°
2026-04-21 15:39 35.38027 -57.08004 31949 ft 366 kts 257°
2026-04-21 15:40 35.37297 -57.14192 31950 ft 366 kts 257°
2026-04-21 15:40 35.36566 -57.20369 31943 ft 365 kts 257°
2026-04-21 15:41 35.35838 -57.26482 31946 ft 365 kts 257°
2026-04-21 15:41 35.35097 -57.32682 31938 ft 365 kts 257°
2026-04-21 15:42 35.34362 -57.38811 31954 ft 365 kts 257°
2026-04-21 15:42 35.33625 -57.44933 31936 ft 363 kts 257°
2026-04-21 15:43 35.32882 -57.51067 31927 ft 363 kts 257°
2026-04-21 15:43 35.32142 -57.57149 31928 ft 363 kts 257°
2026-04-21 15:44 35.31394 -57.63266 31925 ft 363 kts 257°
2026-04-21 15:44 35.30642 -57.69396 31928 ft 363 kts 256°
2026-04-21 15:45 35.29896 -57.75451 31921 ft 363 kts 256°
2026-04-21 15:45 35.29137 -57.81587 31924 ft 363 kts 256°
2026-04-21 15:46 35.28379 -57.87693 31914 ft 363 kts 256°
2026-04-21 15:46 35.27620 -57.93781 31928 ft 363 kts 256°
2026-04-21 15:47 35.26849 -57.99921 31908 ft 364 kts 256°
2026-04-21 15:47 35.26079 -58.06046 31895 ft 364 kts 256°
2026-04-21 15:48 35.25311 -58.12132 31900 ft 363 kts 256°
2026-04-21 15:48 35.24535 -58.18247 31900 ft 363 kts 256°
2026-04-21 15:49 35.23756 -58.24354 31897 ft 365 kts 256°
2026-04-21 15:49 35.22969 -58.30503 31900 ft 366 kts 256°
2026-04-21 15:50 35.22179 -58.36656 31899 ft 367 kts 256°
2026-04-21 15:50 35.21383 -58.42829 31893 ft 367 kts 256°
2026-04-21 15:51 35.20586 -58.48989 31898 ft 367 kts 255°
2026-04-21 15:51 35.19778 -58.55179 31884 ft 372 kts 255°
2026-04-21 15:52 35.18963 -58.61422 31882 ft 372 kts 255°
2026-04-21 15:52 35.18144 -58.67680 31871 ft 372 kts 255°
2026-04-21 15:53 35.17325 -58.73912 31884 ft 372 kts 255°
2026-04-21 15:53 35.16498 -58.80168 31878 ft 372 kts 255°
2026-04-21 15:54 35.15668 -58.86413 31882 ft 372 kts 255°
2026-04-21 15:54 35.14840 -58.92630 31870 ft 372 kts 255°
2026-04-21 15:55 35.14005 -58.98868 31882 ft 372 kts 255°
2026-04-21 15:55 35.13171 -59.05076 31892 ft 373 kts 254°
2026-04-21 15:56 35.12321 -59.11360 31870 ft 374 kts 255°
2026-04-21 15:56 35.11476 -59.17607 31881 ft 374 kts 255°
2026-04-21 15:57 35.10623 -59.23885 31883 ft 374 kts 255°
2026-04-21 15:57 35.09769 -59.30143 31881 ft 374 kts 255°
2026-04-21 15:58 35.08911 -59.36408 31884 ft 370 kts 253°
2026-04-21 15:58 35.08068 -59.42549 31893 ft 368 kts 253°
2026-04-21 15:59 35.07210 -59.48754 31891 ft 368 kts 253°
2026-04-21 15:59 35.06359 -59.54879 31897 ft 368 kts 253°
2026-04-21 16:00 35.05497 -59.61068 31934 ft 368 kts 252°
2026-04-21 16:00 35.04651 -59.67146 31906 ft 364 kts 251°
2026-04-21 16:01 35.03794 -59.73249 31911 ft 363 kts 251°
2026-04-21 16:01 35.02938 -59.79317 31908 ft 363 kts 251°
2026-04-21 16:02 35.02081 -59.85368 31918 ft 363 kts 251°
2026-04-21 16:02 35.01219 -59.91451 31934 ft 362 kts 250°
2026-04-21 16:03 35.00369 -59.97447 31926 ft 359 kts 250°
2026-04-21 16:03 34.99115 -60.03265 31926 ft 351 kts 244°
2026-04-21 16:04 34.97637 -60.08917 31933 ft 350 kts 243°
2026-04-21 16:04 34.96114 -60.14540 31931 ft 351 kts 243°
2026-04-21 16:05 34.94570 -60.20221 31941 ft 349 kts 243°
2026-04-21 16:05 34.93074 -60.25767 31941 ft 345 kts 243°
2026-04-21 16:06 34.91567 -60.31332 31950 ft 345 kts 242°
2026-04-21 16:06 34.90070 -60.36852 31947 ft 345 kts 242°
2026-04-21 16:07 34.88565 -60.42390 31953 ft 345 kts 242°
2026-04-21 16:07 34.87057 -60.47928 31974 ft 345 kts 242°
2026-04-21 16:08 34.84797 -60.56222 31955 ft 343 kts 242°
2026-04-21 16:09 34.83289 -60.61732 31958 ft 342 kts 242°
2026-04-21 16:09 34.81785 -60.67214 31968 ft 342 kts 242°
2026-04-21 16:10 34.80285 -60.72676 31964 ft 342 kts 242°
2026-04-21 16:10 34.78773 -60.78176 31975 ft 341 kts 242°
2026-04-21 16:11 34.77273 -60.83626 31968 ft 339 kts 242°
2026-04-21 16:11 34.76020 -60.88157 31974 ft 339 kts 242°
2026-04-21 16:12 34.74518 -60.93578 31974 ft 339 kts 242°
2026-04-21 16:12 34.73017 -60.98993 31977 ft 339 kts 242°
2026-04-21 16:13 34.71502 -61.04443 32026 ft 339 kts 242°
2026-04-21 16:13 34.70011 -61.09811 31977 ft 335 kts 242°
2026-04-21 16:14 34.68516 -61.15173 31980 ft 335 kts 242°
2026-04-21 16:14 34.67019 -61.20523 31980 ft 335 kts 242°
2026-04-21 16:15 34.65519 -61.25878 31986 ft 335 kts 242°
2026-04-21 16:15 34.64018 -61.31229 31988 ft 334 kts 242°
2026-04-21 16:16 34.62512 -61.36582 32001 ft 335 kts 243°
2026-04-21 16:16 34.61011 -61.41920 31989 ft 333 kts 242°
2026-04-21 16:17 34.59521 -61.47203 32003 ft 333 kts 242°
2026-04-21 16:17 34.58020 -61.52511 31999 ft 333 kts 242°
2026-04-21 16:18 34.56516 -61.57822 32005 ft 333 kts 242°
2026-04-21 16:18 34.55010 -61.63130 32002 ft 333 kts 242°
2026-04-21 16:19 34.53504 -61.68428 32005 ft 332 kts 242°
2026-04-21 16:19 34.51989 -61.73749 32009 ft 332 kts 242°
2026-04-21 16:20 34.50485 -61.79019 32013 ft 332 kts 242°
2026-04-21 16:20 34.48969 -61.84323 32014 ft 332 kts 242°
2026-04-21 16:21 34.47467 -61.89571 32006 ft 331 kts 242°
2026-04-21 16:21 34.45945 -61.94869 32024 ft 333 kts 243°
2026-04-21 16:22 34.44420 -62.00171 32020 ft 334 kts 243°
2026-04-21 16:22 34.42892 -62.05480 32024 ft 334 kts 243°
2026-04-21 16:23 34.41347 -62.10817 32021 ft 333 kts 241°
2026-04-21 16:23 34.39028 -62.15484 32023 ft 320 kts 225°
2026-04-21 16:24 34.36056 -62.19456 32002 ft 319 kts 223°
2026-04-21 16:24 34.33031 -62.23364 32060 ft 319 kts 224°
2026-04-21 16:25 34.29969 -62.27305 32029 ft 325 kts 224°
2026-04-21 16:25 34.26856 -62.31309 32034 ft 327 kts 224°
2026-04-21 16:26 34.23725 -62.35330 32035 ft 327 kts 224°
2026-04-21 16:26 34.20613 -62.39322 32034 ft 327 kts 224°
2026-04-21 16:27 34.17496 -62.43317 32033 ft 324 kts 224°
2026-04-21 16:27 34.14432 -62.47239 32046 ft 322 kts 224°
2026-04-21 16:28 34.11352 -62.51177 32041 ft 321 kts 224°
2026-04-21 16:28 34.08188 -62.55027 32046 ft 326 kts 214°
2026-04-21 16:29 34.04124 -62.57575 32043 ft 331 kts 213°
2026-04-21 16:29 34.00406 -62.60798 32023 ft 331 kts 219°
2026-04-21 16:30 33.96936 -62.64450 32043 ft 331 kts 222°
2026-04-21 16:30 33.93564 -62.68230 32051 ft 330 kts 223°
2026-04-21 16:31 33.90226 -62.72041 32050 ft 330 kts 223°
2026-04-21 16:31 33.86895 -62.75858 32049 ft 331 kts 223°
2026-04-21 16:32 33.83563 -62.79681 32056 ft 331 kts 223°
2026-04-21 16:32 33.80258 -62.83469 32074 ft 329 kts 223°
2026-04-21 16:33 33.76921 -62.87290 32054 ft 333 kts 223°
2026-04-21 16:33 33.73555 -62.91139 32020 ft 336 kts 223°
2026-04-21 16:33 33.71859 -62.93078 31767 ft 336 kts 223°
2026-04-21 16:34 33.70170 -62.95007 31520 ft 335 kts 223°
2026-04-21 16:34 33.68479 -62.96936 31273 ft 336 kts 223°
2026-04-21 16:34 33.66782 -62.98872 31026 ft 336 kts 223°
2026-04-21 16:34 33.65085 -63.00807 30771 ft 336 kts 223°
2026-04-21 16:35 33.63388 -63.02742 30537 ft 336 kts 223°
2026-04-21 16:35 33.61712 -63.04650 30223 ft 335 kts 223°
2026-04-21 16:35 33.60021 -63.06575 29741 ft 335 kts 223°
2026-04-21 16:35 33.58332 -63.08496 29320 ft 334 kts 223°
2026-04-21 16:36 33.56648 -63.10411 29035 ft 333 kts 224°
2026-04-21 16:36 33.54970 -63.12317 28715 ft 332 kts 224°
2026-04-21 16:36 33.53298 -63.14216 28435 ft 332 kts 224°
2026-04-21 16:36 33.51618 -63.16123 28083 ft 332 kts 224°
2026-04-21 16:37 33.49942 -63.18025 27759 ft 331 kts 224°
2026-04-21 16:37 33.48273 -63.19917 27442 ft 329 kts 224°
2026-04-21 16:37 33.46612 -63.21799 27134 ft 328 kts 224°
2026-04-21 16:37 33.44957 -63.23673 26779 ft 326 kts 224°
2026-04-21 16:38 33.43311 -63.25536 26510 ft 325 kts 224°
2026-04-21 16:38 33.41675 -63.27387 26198 ft 323 kts 224°
2026-04-21 16:38 33.40063 -63.29210 25896 ft 322 kts 224°
2026-04-21 16:38 33.38437 -63.31047 25579 ft 321 kts 224°
2026-04-21 16:39 33.36815 -63.32879 25264 ft 319 kts 224°
2026-04-21 16:39 33.35201 -63.34700 24959 ft 318 kts 224°
2026-04-21 16:39 33.33596 -63.36512 24652 ft 317 kts 224°
2026-04-21 16:39 33.31993 -63.38319 24344 ft 316 kts 224°
2026-04-21 16:40 33.30396 -63.40119 24038 ft 315 kts 224°
2026-04-21 16:40 33.28808 -63.41908 23735 ft 314 kts 224°
2026-04-21 16:40 33.27223 -63.43693 23398 ft 312 kts 224°
2026-04-21 16:40 33.25648 -63.45465 23056 ft 310 kts 225°
2026-04-21 16:41 33.24607 -63.46635 22866 ft 310 kts 225°
2026-04-21 16:41 33.22514 -63.48989 22471 ft 308 kts 225°
2026-04-21 16:41 33.20953 -63.50742 22176 ft 307 kts 225°
2026-04-21 16:41 33.19399 -63.52487 21867 ft 306 kts 225°
2026-04-21 16:42 33.17851 -63.54224 21564 ft 305 kts 225°
2026-04-21 16:42 33.16309 -63.55955 21263 ft 304 kts 225°
2026-04-21 16:42 33.14774 -63.57675 20963 ft 302 kts 225°
2026-04-21 16:42 33.13242 -63.59393 20652 ft 301 kts 225°
2026-04-21 16:43 33.11735 -63.61080 20365 ft 300 kts 226°
2026-04-21 16:43 33.10216 -63.62780 20071 ft 299 kts 226°
2026-04-21 16:43 33.08704 -63.64473 19762 ft 298 kts 226°
2026-04-21 16:43 33.07191 -63.66164 19466 ft 297 kts 226°
2026-04-21 16:44 33.05690 -63.67842 19170 ft 296 kts 226°
2026-04-21 16:44 33.04193 -63.69515 18874 ft 295 kts 226°
2026-04-21 16:44 33.02700 -63.71183 18587 ft 293 kts 226°
2026-04-21 16:44 33.01211 -63.72845 18268 ft 292 kts 226°
2026-04-21 16:45 32.99727 -63.74501 17953 ft 292 kts 227°
2026-04-21 16:45 32.98238 -63.76161 17653 ft 293 kts 227°
2026-04-21 16:45 32.96751 -63.77819 17356 ft 293 kts 227°
2026-04-21 16:45 32.95283 -63.79455 17061 ft 293 kts 227°
2026-04-21 16:46 32.93797 -63.81110 16763 ft 292 kts 227°
2026-04-21 16:46 32.92312 -63.82763 16383 ft 292 kts 227°
2026-04-21 16:46 32.90799 -63.84396 15635 ft 297 kts 226°
2026-04-21 16:46 32.89225 -63.86042 14998 ft 300 kts 226°
2026-04-21 16:47 32.87667 -63.87657 14619 ft 294 kts 226°
2026-04-21 16:47 32.86138 -63.89249 14262 ft 292 kts 226°
2026-04-21 16:47 32.84613 -63.90842 13882 ft 292 kts 227°
2026-04-21 16:47 32.83091 -63.92434 13473 ft 291 kts 227°
2026-04-21 16:48 32.81574 -63.94020 13089 ft 290 kts 227°
2026-04-21 16:48 32.80063 -63.95601 12719 ft 289 kts 227°
2026-04-21 16:48 32.78553 -63.97181 12344 ft 288 kts 227°
2026-04-21 16:48 32.77064 -63.98737 11974 ft 288 kts 227°
2026-04-21 16:49 32.75560 -64.00310 11595 ft 287 kts 227°
2026-04-21 16:49 32.74062 -64.01875 11220 ft 287 kts 227°
2026-04-21 16:49 32.72565 -64.03438 10854 ft 285 kts 227°
2026-04-21 16:49 32.71104 -64.04957 10724 ft 274 kts 227°
2026-04-21 16:50 32.69668 -64.06456 10362 ft 277 kts 228°
2026-04-21 16:50 32.68217 -64.07972 9964 ft 277 kts 227°
2026-04-21 16:50 32.66775 -64.09476 9595 ft 274 kts 227°
2026-04-21 16:50 32.65357 -64.10953 9254 ft 273 kts 227°
2026-04-21 16:51 32.63928 -64.12441 8900 ft 273 kts 227°
2026-04-21 16:51 32.62506 -64.13922 8559 ft 272 kts 227°
2026-04-21 16:51 32.61087 -64.15399 8207 ft 271 kts 227°
2026-04-21 16:51 32.59673 -64.16870 7855 ft 270 kts 227°
2026-04-21 16:52 32.58262 -64.18337 7504 ft 270 kts 227°
2026-04-21 16:52 32.56854 -64.19801 7153 ft 269 kts 227°
2026-04-21 16:52 32.55922 -64.20769 6923 ft 268 kts 227°
2026-04-21 16:52 32.54049 -64.22713 6443 ft 268 kts 227°
2026-04-21 16:53 32.52649 -64.24166 6087 ft 267 kts 226°
2026-04-21 16:53 32.51247 -64.25621 5734 ft 267 kts 227°
2026-04-21 16:53 32.49850 -64.27070 5375 ft 267 kts 227°
2026-04-21 16:53 32.48448 -64.28524 5030 ft 268 kts 227°
2026-04-21 16:54 32.47050 -64.29972 4716 ft 263 kts 227°
2026-04-21 16:54 32.45704 -64.31358 4638 ft 249 kts 227°
2026-04-21 16:54 32.44430 -64.32668 4569 ft 235 kts 227°
2026-04-21 16:54 32.43228 -64.33908 4448 ft 226 kts 228°
2026-04-21 16:55 32.42040 -64.35143 4202 ft 226 kts 228°
2026-04-21 16:55 32.40868 -64.36360 3998 ft 227 kts 227°
2026-04-21 16:55 32.39672 -64.37610 3730 ft 229 kts 227°
2026-04-21 16:55 32.38524 -64.38929 3481 ft 228 kts 232°
2026-04-21 16:56 32.37508 -64.40355 3233 ft 227 kts 238°
2026-04-21 16:56 32.36596 -64.41866 3043 ft 224 kts 242°
2026-04-21 16:56 32.35716 -64.43394 2998 ft 225 kts 242°
2026-04-21 16:56 32.34844 -64.44931 2994 ft 224 kts 244°
2026-04-21 16:57 32.34101 -64.46540 3005 ft 221 kts 253°
2026-04-21 16:57 32.33634 -64.48252 2999 ft 216 kts 266°
2026-04-21 16:57 32.33478 -64.50004 2818 ft 212 kts 276°
2026-04-21 16:57 32.33637 -64.51715 2536 ft 208 kts 288°
2026-04-21 16:58 32.33926 -64.53388 2227 ft 207 kts 287°
2026-04-21 16:58 32.34209 -64.55061 1943 ft 207 kts 287°
2026-04-21 16:58 32.34489 -64.56716 1662 ft 206 kts 287°
2026-04-21 16:58 32.34773 -64.58375 1367 ft 205 kts 287°
2026-04-21 16:59 32.35057 -64.60031 1090 ft 205 kts 287°
2026-04-21 16:59 32.35338 -64.61674 819 ft 199 kts 287°
2026-04-21 16:59 32.35604 -64.63230 576 ft 187 kts 287°
2026-04-21 16:59 32.35851 -64.64670 348 ft 170 kts 287°
2026-04-21 17:00 32.36001 -64.65547 225 ft 160 kts 286°
2026-04-21 17:00 32.36214 -64.66781 49 ft 146 kts 287°
2026-04-21 17:00 32.36395 -64.67781 28 ft 98 kts 282°
2026-04-21 17:00 32.36476 -64.68266 32 ft 32 kts 281°
2026-04-21 17:01 32.36493 -64.68375 33 ft 24 kts 281°
2026-04-21 17:01 32.36515 -64.68490 32 ft 19 kts 284°
2026-04-21 17:01 32.36535 -64.68610 32 ft 12 kts 281°
2026-04-21 17:01 32.36549 -64.68689 32 ft 8 kts 282°
2026-04-21 17:02 32.36559 -64.68739 32 ft 5 kts 282°
2026-04-21 17:02 32.36566 -64.68778 31 ft 4 kts 282°
2026-04-21 17:02 32.36572 -64.68811 32 ft 5 kts 282°
2026-04-21 17:02 32.36580 -64.68856 19 ft 8 kts 281°
2026-04-21 17:03 32.36593 -64.68943 30 ft 12 kts 280°
2026-04-21 17:03 32.36615 -64.69039 29 ft 11 kts 313°
2026-04-21 17:03 32.36667 -64.69023 32 ft 8 kts 46°
2026-04-21 17:03 32.36696 -64.68950 34 ft 14 kts 69°
2026-04-21 17:04 32.36733 -64.68844 37 ft 13 kts 66°
2026-04-21 17:04 32.36770 -64.68749 33 ft 12 kts 50°